Weather History for Bonaire, Bonaire

Change the Weather History Date:

Sunday, October 2, 2011

  Actual Average Record
Temperature  
Mean Temperature 86 °F -  
Max Temperature 90 °F 88 °F 95 °F (2005)
Min Temperature 82 °F 81 °F 75 °F (2000)
Cooling Degree Days 21    
Growing Degree Days 36 (Base 50)    
Moisture  
Dew Point 77 °F    
Average Humidity 73    
Maximum Humidity 84    
Minimum Humidity 61    
Precipitation  
Precipitation 0.00 in - - ()
Sea Level Pressure  
Sea Level Pressure 29.89 in    
Wind  
Wind Speed 13 mph ()    
Max Wind Speed 20 mph    
Max Gust Speed -    
Visibility 6.2 miles    
Events      
Averages and records for this station are not official NWS values.
T = Trace of Precipitation, MM = Missing Value Source: Averaged Metar Reports

Daily Weather History Graph

Daily Weather History Graph

Search for Another Location

Airport:

Trip Planner

Search our weather history database for the weather conditions in past years. The results will help you decide how hot, cold, wet, or windy it might be!

Date:

Astronomy

Oct. 02, 2011 Rise Set
Actual Time 6:22 AM AST 6:22 PM AST
Civil Twilight 6:01 AM AST 6:43 PM AST
Nautical Twilight 5:36 AM AST 7:08 PM AST
Astronomical Twilight 5:11 AM AST 7:32 PM AST
Moon 11:28 AM AST (10/2) 11:13 PM AST (10/2)
Length of Visible Light 12h 42m
Length of Day
12h 00m
Waxing Crescent, 34% of the Moon is Illuminated
Oct 2
Waxing Crescent
Oct 3
First Quarter
Oct 11
Full
Oct 19
Last Quarter
Oct 26
New

Hourly Weather History & Observations

Time (AST) Temp. Heat Index Dew Point Humidity Pressure Visibility Wind Dir Wind Speed Gust Speed Precip Events Conditions
12:00 AM 84.2 °F 92.3 °F 75.2 °F 74% 29.89 in - North - - N/A   Unknown
1:00 AM 84.2 °F 94.1 °F 77.0 °F 79% 29.86 in - North - - N/A   Unknown
2:00 AM 83 °F - 76 °F 75%  in 6 mi Calm Calm - -   Clear
2:00 AM 82.4 °F 90.9 °F 77.0 °F 84% 29.86 in - North - - N/A   Unknown
3:00 AM 82.4 °F 90.9 °F 77.0 °F 84% 29.86 in - North - - N/A   Unknown
4:00 AM 84.2 °F 92.3 °F 75.2 °F 74% 29.86 in - North - - N/A   Unknown
5:00 AM 82.4 °F 90.9 °F 77.0 °F 84% 29.86 in - North - - N/A   Unknown
6:00 AM 82.4 °F 90.9 °F 77.0 °F 84% 29.89 in - North - - N/A   Unknown
7:00 AM 84.2 °F 94.1 °F 77.0 °F 79% 29.89 in - North - - N/A   Unknown
8:00 AM 87 °F - 77 °F 66% 29.93 in 22 mi East 13.8 mph - -   Partly Cloudy
8:00 AM 87.8 °F 99.7 °F 77.0 °F 70% 29.92 in 6.2 mi East 13.8 mph - N/A   Partly Cloudy
9:00 AM 89.6 °F 102.2 °F 77.0 °F 66% 29.92 in - North - - N/A   Unknown
10:00 AM 89.6 °F 102.2 °F 77.0 °F 66% 29.95 in 6.2 mi East 19.6 mph - N/A   Partly Cloudy
11:00 AM 89 °F - 77 °F 61% 29.96 in 25 mi ESE 19.6 mph - -   Partly Cloudy
11:00 AM 89.6 °F 102.2 °F 77.0 °F 66% 29.95 in 6.2 mi ESE 19.6 mph - N/A   Scattered Clouds
12:00 PM 89.6 °F 102.2 °F 77.0 °F 66% 29.92 in 6.2 mi ESE 18.4 mph - N/A   Scattered Clouds
1:00 PM 89.6 °F 102.2 °F 77.0 °F 66% 29.89 in 6.2 mi ESE 19.6 mph - N/A   Scattered Clouds
2:00 PM 89 °F - 78 °F 62% 29.88 in 25 mi East 18.4 mph - -   Partly Cloudy
2:00 PM 89.6 °F 102.2 °F 77.0 °F 66% 29.86 in 6.2 mi East 18.4 mph - N/A   Scattered Clouds
3:00 PM 89.6 °F 102.2 °F 77.0 °F 66% 29.83 in 6.2 mi ESE 18.4 mph - N/A   Scattered Clouds
5:00 PM 88 °F - 78 °F 65%  in 25 mi Calm Calm - -   Clear
5:00 PM 87.8 °F 99.7 °F 77.0 °F 70% 29.83 in 6.2 mi North - - N/A   Mostly Cloudy
6:00 PM 86.0 °F 96.9 °F 77.0 °F 74% 29.86 in 6.2 mi North - - N/A   Mostly Cloudy
7:00 PM 84.2 °F 94.1 °F 77.0 °F 79% 29.86 in 6.2 mi North - - N/A   Mostly Cloudy
8:00 PM 84 °F - 77 °F 75% 29.88 in 25 mi East 12.7 mph - -   Partly Cloudy
8:00 PM 84.2 °F 94.1 °F 77.0 °F 79% 29.86 in 6.2 mi East 13.8 mph - N/A   Scattered Clouds
9:00 PM 84.2 °F 92.3 °F 75.2 °F 74% 29.89 in 6.2 mi North - - N/A   Scattered Clouds
10:00 PM 84.2 °F 94.1 °F 77.0 °F 79% 29.92 in - Calm Calm - N/A   Scattered Clouds
11:00 PM 84 °F - 76 °F 70%  in - Calm Calm - -   Clear
11:00 PM 84.2 °F 92.3 °F 75.2 °F 74% 29.92 in - North - - N/A   Unknown